Powrót do katalogu

STARLINK-4616

AktywnyŁącznośćVLEO
NORAD 53734·PAYLOAD·🇺🇸 United States

Wystrzelony Sep 5, 2022 z Cape Canaveral Space Force Station

Loading…

Następne Przeloty (najbliższe 24 godziny)

TLE

ŚwieżeSource: CelesTrak SupGP

Epoka: Sep 14, 2026, 20:44 UTC

1 53734C 22107AL  26257.86437500 -.00020000  00000+0 -59110-3 0  2578
2 53734  53.1586 112.4002 0001188  88.0371 197.7989 15.34391307    14

Śledź STARLINK-4616 w czasie rzeczywistym z AllMySat

Download on the App Store